Location: Breitenbach
(48.2741°N, 8.1729°E)
Time: 02:14:26
(UTC+00:00)

Daily predictions for brighter satellites

Satellite Brightness Start Highest point End
(mag) Time Altitude Azimuth Time Altitude Azimuth Time Altitude Azimuth
Cosmos 2227 Rocket 2.1 00:05:20 30° SSW 00:08:17 86° ESE 00:13:59 10° NNE
Cosmos 1892 3.2 00:09:05 35° WSW 00:09:57 43° WNW 00:13:20 10° N
Cosmos 990 Rocket 4.0 00:08:24 33° S 00:10:42 70° ESE 00:15:50 10° NNE
IDEFIX/ARIANE 42P 4.4 00:07:05 10° NE 00:11:01 21° E 00:14:28 12° SE
Cosmos 332 Rocket 3.9 00:09:47 31° SW 00:12:08 72° WNW 00:17:02 10° NNE
SL-12 R/B(2) 4.4 00:09:27 25° SSW 00:14:41 70° ESE 00:24:22 10° NE
CENTAUR R/B 2.5 00:12:18 29° SSW 00:15:19 67° SE 00:22:17 10° NE
CZ-2D R/B 4.2 00:14:54 10° NE 00:18:27 18° E 00:21:57 10° SE
GEOS 3 Rocket 3.6 00:13:43 10° NE 00:18:55 84° NW 00:22:03 24° SW
Meteor 1-21 Rocket 4.3 00:18:17 28° S 00:21:26 75° E 00:27:08 10° NNE
H-2A R/B 3.0 00:18:06 10° N 00:22:03 37° WNW 00:24:02 23° WSW
Cosmos 1975 Rocket 3.5 00:21:39 28° SSE 00:23:37 51° E 00:27:53 10° NNE
Cosmos 1538 Rocket 3.9 00:19:06 10° NNW 00:24:18 75° WSW 00:27:12 27° S
SL-4 R/B 2.9 00:23:06 10° W 00:26:24 31° SW 00:26:24 31° SW
Cosmos 2074 Rocket 4.4 00:24:31 25° SW 00:28:07 55° WNW 00:34:14 10° N
Cosmos 2297 Rocket 3.2 00:24:23 15° WSW 00:28:41 41° NW 00:34:02 10° NNE
Cosmos 2219 3.2 00:27:36 29° SSW 00:30:34 74° ESE 00:36:12 10° NNE
Cosmos 2341 Rocket 4.4 00:28:16 21° SSE 00:32:22 56° E 00:38:26 10° NNE
Cosmos 2084 Rocket 4.0 00:29:51 21° WSW 00:32:28 54° NW 00:36:31 10° NE
Cosmos 1455 Rocket 3.0 00:31:03 10° NNW 00:35:31 78° W 00:37:36 31° S
Aureole 1 Rocket 2.7 00:38:34 38° S 00:39:51 76° ESE 00:44:13 10° NNE
Cosmos 1825 3.8 00:42:47 17° W 00:43:57 20° WNW 00:46:34 10° NNW
Cosmos 372 Rocket 4.3 00:42:35 25° S 00:45:28 57° ESE 00:50:36 10° NNE
ADEOS II 4.1 00:42:16 10° NE 00:46:08 20° E 00:49:59 10° SE
Meteor 2-1 Rocket 4.3 00:42:59 10° N 00:48:57 86° ENE 00:53:19 19° SSE
Cosmos 923 Rocket 4.0 00:47:05 10° NNW 00:52:24 86° ENE 00:56:51 14° SSE
Cosmos 1025 Rocket 3.7 00:50:34 25° SW 00:52:35 42° WNW 00:56:42 10° N
CRYOSAT 2 4.4 00:50:27 10° N 00:55:20 71° W 00:58:05 26° SSW
BREEZE-M DEB (TANK) 2.3 00:53:57 10° WNW 00:58:35 39° SW 00:58:59 37° SSW
Resurs 1-4 Rocket 3.1 00:54:09 10° NNE 00:59:05 39° E 01:03:09 15° SSE
NOSS 3-2 (A) 3.2 00:56:57 24° SW 01:00:15 84° SE 01:06:31 10° NE
Cosmos 1937 Rocket 3.7 00:58:06 24° S 01:01:18 67° ESE 01:06:31 10° NNE
Cosmos 1606 2.5 00:58:34 10° N 01:02:11 85° E 01:04:04 26° SSE
Cosmos 2263 Rocket 2.1 00:58:49 24° SSW 01:02:16 89° ESE 01:07:54 10° NNE
CZ-4C R/B 3.8 00:59:32 10° W 01:03:56 30° NNW 01:09:21 10° NE
Cosmos 1898 Rocket 3.4 01:01:19 25° SSW 01:04:25 88° WNW 01:09:38 10° NNE
NOSS 3-2 (C) 3.8 01:03:08 22° S 01:06:15 46° ESE 01:12:03 10° NE
Orbus 7S? 3.0 01:04:36 10° NW 01:07:19 75° NE 01:11:21 10° ESE
MOZ.5/SAFIR/RUBIN 5/SL-8 3.7 01:05:48 22° S 01:08:48 70° WSW 01:13:26 10° NNW
Cosmos 2218 Rocket 4.0 01:04:28 20° S 01:09:02 81° E 01:15:14 10° N
Helios 1A Rocket 3.5 01:12:04 26° SW 01:13:25 35° W 01:16:55 10° NNW
BlueWalker 3 3.4 01:10:50 10° WNW 01:14:21 37° N 01:17:52 10° ENE
Cosmos 2366 rocket 4.0 01:11:40 20° S 01:16:17 87° W 01:22:33 10° N
Cosmos 1461 2.8 01:14:31 26° SSW 01:16:33 64° SE 01:20:24 10° NE
Cosmos 1844 Rocket 4.1 01:17:43 11° SSE 01:22:20 30° ESE 01:27:07 10° NE
BREEZE-M DEB (TANK) 2.7 01:25:57 25° S 01:25:57 25° S 01:28:01 10° SE
MSX 3.9 01:22:58 10° NNE 01:28:44 77° ESE 01:33:23 16° S
Cosmos 1680 Rocket 3.6 01:29:33 10° NNW 01:34:40 58° WSW 01:39:25 12° S
ALOS 3.9 01:31:08 10° NE 01:35:09 29° E 01:39:08 10° SSE
Cosmos 1818 3.7 01:30:34 10° NW 01:35:54 53° WSW 01:41:10 10° SSE
Cosmos 2112 Rocket 4.0 01:31:41 10° NNW 01:36:50 65° WSW 01:41:56 10° S
SL-16 R/B 3.3 01:33:42 10° NW 01:38:15 25° WSW 01:41:09 17° SW
SL-16 R/B 3.1 01:32:19 10° SE 01:38:27 61° ENE 01:44:35 10° N
Cosmos 1603 3.8 01:37:42 10° NNW 01:43:31 83° ENE 01:49:14 10° SSE
Cosmos 1869 4.2 01:41:33 10° NNW 01:44:48 29° W 01:46:40 19° SW
Cosmos 1544 Rocket 4.3 01:42:52 10° NNW 01:47:00 38° W 01:49:57 17° SSW
USA 234 4.1 01:41:14 10° E 01:47:34 55° NNE 01:53:55 10° NW
SL-8 Rocket 4.5 01:43:18 16° SW 01:47:59 47° WNW 01:53:58 10° N
COSMOS 2441 4.4 01:43:19 10° NNE 01:48:08 78° ESE 01:52:26 13° S
Meteor 1-28 Rocket 3.6 01:45:13 10° SSE 01:48:41 59° ENE 01:52:12 10° N
Cosmos 2082 4.4 01:45:35 14° SW 01:50:14 46° NW 01:55:39 10° NNE
IDEFIX/ARIANE 42P 2.8 01:45:46 10° N 01:50:57 61° WNW 01:55:13 15° SSW
Cosmos 2228 3.5 01:48:29 10° NNW 01:52:36 43° W 01:55:50 15° SSW
Cosmos 2227 Rocket 4.1 01:48:44 10° W 01:53:05 22° NW 01:57:26 10° N
Cosmos 1943 3.3 01:48:09 10° NW 01:53:38 56° WSW 01:59:05 10° S
CZ-2C R/B 3.1 01:50:35 10° NNE 01:56:06 88° W 02:00:50 12° SSW
CZ-2C R/B 2.8 01:51:20 11° S 01:56:14 53° W 02:01:32 10° NNW
Cosmos 1437 Rocket 2.6 01:53:28 15° S 01:56:36 90° SE 02:00:25 10° NNE
CZ-2D R/B 2.2 01:53:41 10° NNE 01:59:03 73° WNW 02:03:47 13° SSW
FENGYUN 3A 3.7 01:55:59 10° NNE 02:01:24 81° ESE 02:06:47 10° SSW
Cosmos 1727 Rocket 4.1 01:58:20 10° NNW 02:04:34 63° W 02:10:49 10° S
CENTAUR R/B 3.8 02:00:45 10° W 02:06:29 39° NNW 02:13:30 10° NE
H-2A R/B 4.2 02:05:06 10° N 02:08:48 38° WNW 02:12:02 13° SW
Cosmos 2239 Rocket 4.5 02:02:42 10° S 02:08:51 88° W 02:15:02 10° N
Envisat 4.5 02:05:46 10° NNE 02:10:21 33° E 02:14:53 10° SSE
Cosmos 1048 Rocket 4.1 02:06:26 10° NNW 02:11:41 87° ENE 02:16:58 10° SSE
USA 238 DEB 3.7 02:06:34 12° SSW 02:12:16 72° SE 02:19:01 10° NE
USA 238 3.7 02:06:36 12° SSW 02:12:19 72° SE 02:19:04 10° NE
NPP 4.4 02:10:19 10° N 02:15:21 42° WNW 02:20:16 11° SW
ASTEX 1 3.4 02:15:46 10° S 02:20:36 71° W 02:25:29 10° N
Cosmos 1606 Rocket 3.7 02:18:15 10° NNW 02:22:38 58° W 02:26:58 10° S
Cosmos 1125 Rocket 4.3 02:18:10 10° S 02:23:12 49° ESE 02:28:19 10° NNE
Cosmos 1867 3.7 02:18:38 11° SSW 02:23:55 84° SE 02:29:26 10° NE
CZ-2C R/B 4.1 02:20:41 10° NE 02:24:34 27° E 02:28:26 10° SSE
Cosmos 921 Rocket 3.1 02:20:56 10° NNW 02:25:04 52° WSW 02:29:07 10° S
ADEOS II 2.3 02:21:00 10° N 02:26:11 63° WNW 02:31:21 10° SSW
BREEZE-M DEB (TANK) 4.4 02:21:47 10° SSW 02:27:47 23° SSE 02:30:34 10° ESE
Alouette 2 Rocket 3.8 02:23:21 10° S 02:28:01 64° ESE 02:31:40 10° NNE
Cosmos 494 Rocket 4.2 02:23:29 10° NNW 02:28:33 51° WSW 02:33:36 10° S
Cosmos 1844 3.8 02:28:15 10° SSW 02:34:01 88° ESE 02:39:53 10° NNE
Cosmos 1238 Rocket 3.0 02:34:19 10° N 02:37:50 58° ENE 02:40:54 10° SSE
USA 81 4.1 02:32:54 10° N 02:38:13 85° W 02:43:29 10° S
Cosmos 1726 Rocket 3.8 02:33:53 10° NNW 02:38:14 54° W 02:42:31 10° S
Resurs 1-4 Rocket 3.1 02:34:07 10° N 02:38:49 34° WNW 02:43:31 10° SW
Cosmos 724 4.3 02:38:09 10° NW 02:43:56 73° WSW 02:49:45 10° SSE
Cosmos 2263 Rocket 4.0 02:42:49 10° W 02:46:58 21° NW 02:51:08 10° N
BREEZE M DEB (TANK) 4.0 02:46:27 10° WNW 02:58:42 83° SSW 03:02:23 10° ESE
